ORBCOMM FM117 [+]

Last updated on Thu Dec 28 2023 00:02:55 GMT+0000 (Coordinated Universal Time)

1 41188U 15081K 23361.42779488 .00001143 00000+0 29408-3 0 9995 2 41188 46.9998 121.3807 0002256 4.2807 355.8096 14.56150656428411
UTC large
Height (km)
Speed (km/s)
/
Latitude / Longitude
Inclination (degrees)
Orbital Period (minutes)
Azimuth
Elevation
Range (km)
Doppler Factor

Next 0 passes for location: London (51.5072 / 0.1276)

Sorry there are no passes over London.
ORBCOMM FM117 [+]